Location: *
(40.7873°S, 98.7174°E)
Time: 21:12:12
(UTC+00:00)

Cosmos 192 - Pass Details

Date: 02 October 2022
Orbit: 701 x 711 km, 74.0° (Epoch: 05 December)

Event Time Altitude Azimuth Distance (km) Brightness Sun altitude
Rises 19:21:43 0° 191° (SSW) 3,138 8.1 -36.8°
Reaches altitude 10° 19:24:17 10° 182° (S) 2,214 7.3 -36.4°
Enters shadow 19:26:34 23° 162° (SSE) 1,506 6.5 -36.2°
